Nashville, TN

9:09 PM CST on December 08, 2019 (GMT -0600)
Nashville International

Weather History for KBNA - October, 2019

Change the Weather History Date:

Monday, October 14, 2019

  Actual Average Record
Temperature  
Mean Temperature 60 °F 61 °F  
Max Temperature 75 °F 72 °F 89 °F (1947)
Min Temperature 44 °F 49 °F 32 °F (1977)
Degree Days  
Heating Degree Days 6    
Month to date heating degree days  
Since 1 July heating degree days  
Cooling Degree Days 0    
Month to date cooling degree days  
Year to date cooling degree days  
Growing Degree Days 10 (Base 50)    
Moisture  
Dew Point 43 °F    
Average Humidity 60    
Maximum Humidity 86    
Minimum Humidity 28    
Precipitation  
Precipitation 0.00 in 0.10 in 1.27 in (1954)
Month to date precipitation 1.36  
Year to date precipitation 37.02  
Sea Level Pressure  
Sea Level Pressure 30.11 in    
Wind  
Wind Speed 2 mph ()    
Max Wind Speed 6 mph    
Max Gust Speed -    
Visibility 10.0 miles    
Events      
T = Trace of Precipitation, MM = Missing Value Source: Averaged Metar Reports

Daily Weather History Graph

Daily Weather History Graph

Search for Another Location

Airport or City:

Astronomy

Oct. 14, 2019 Rise Set
Actual Time 6:52 AM CDT 6:12 PM CDT
Civil Twilight 6:26 AM CDT 6:38 PM CDT
Nautical Twilight 5:56 AM CDT 7:07 PM CDT
Astronomical Twilight 5:27 AM CDT 7:37 PM CDT
Moon 7:02 PM CDT (10/14) 7:24 AM CDT (10/14)
Length of Visible Light 12h 11m
Length of Day
11h 19m
Full, 99% of the Moon is Illuminated
Oct 14
Full
Oct 21
Last Quarter
Oct 27
New
Nov 4
First Quarter
Nov 12
Full

Hourly Weather History & Observations

Time (CDT) Temp. Windchill Dew Point Humidity Pressure Visibility Wind Dir Wind Speed Gust Speed Precip Events Conditions
12:53 AM 48.0 °F - 39.9 °F 74% 30.08 in 10.0 mi Calm Calm - N/A   Clear
1:53 AM 46.9 °F - 39.9 °F 77% 30.08 in 10.0 mi South 3.5 mph - N/A   Clear
2:53 AM 45.0 °F 42.6 °F 39.9 °F 82% 30.08 in 10.0 mi South 4.6 mph - N/A   Clear
4:53 AM 45.0 °F 42.6 °F 41.0 °F 86% 30.10 in 10.0 mi South 4.6 mph - N/A   Clear
5:53 AM 44.1 °F 41.5 °F 39.9 °F 85% 30.12 in 10.0 mi South 4.6 mph - N/A   Clear
6:53 AM 45.0 °F 42.6 °F 41.0 °F 86% 30.14 in 10.0 mi South 4.6 mph - N/A   Clear
7:53 AM 46.9 °F - 43.0 °F 86% 30.16 in 10.0 mi South 5.8 mph - N/A   Clear
8:53 AM 54.0 °F - 46.0 °F 75% 30.17 in 10.0 mi Calm Calm - N/A   Clear
9:53 AM 61.0 °F - 46.0 °F 58% 30.17 in 10.0 mi North 3.5 mph - N/A   Partly Cloudy
10:53 AM 66.0 °F - 45.0 °F 47% 30.16 in 10.0 mi NW 3.5 mph - N/A   Partly Cloudy
11:53 AM 68.0 °F - 43.0 °F 40% 30.16 in 10.0 mi ENE 3.5 mph - N/A   Partly Cloudy
12:53 PM 70.0 °F - 45.0 °F 41% 30.12 in 10.0 mi East 3.5 mph - N/A   Scattered Clouds
1:53 PM 73.9 °F - 41.0 °F 30% 30.10 in 10.0 mi Variable 4.6 mph - N/A   Scattered Clouds
2:53 PM 73.0 °F - 39.0 °F 29% 30.08 in 10.0 mi Variable 3.5 mph - N/A   Scattered Clouds
3:53 PM 75.0 °F - 39.9 °F 28% 30.08 in 10.0 mi Calm Calm - N/A   Scattered Clouds
4:53 PM 73.0 °F - 39.0 °F 29% 30.08 in 10.0 mi SW 3.5 mph - N/A   Scattered Clouds
5:53 PM 66.9 °F - 44.1 °F 44% 30.08 in 10.0 mi Calm Calm - N/A   Mostly Cloudy
6:53 PM 64.0 °F - 43.0 °F 46% 30.09 in 10.0 mi Calm Calm - N/A   Mostly Cloudy
7:53 PM 61.0 °F - 46.0 °F 58% 30.09 in 10.0 mi Calm Calm - N/A   Mostly Cloudy
8:53 PM 59.0 °F - 46.9 °F 64% 30.09 in 10.0 mi South 3.5 mph - N/A   Mostly Cloudy
9:53 PM 57.0 °F - 48.9 °F 74% 30.09 in 10.0 mi South 3.5 mph - N/A   Mostly Cloudy
10:53 PM 57.9 °F - 48.0 °F 70% 30.08 in 10.0 mi Calm Calm - N/A   Scattered Clouds
11:53 PM 55.0 °F - 48.0 °F 77% 30.08 in 10.0 mi SSW 3.5 mph - N/A   Partly Cloudy